date,time,SUV Intensity [MED/Hr],UV Index,Daily total [MED],Since Last [MED]
15/02/2022,11:17:04,0.074,0.0,0.117,0.117
15/02/2022,11:49:27,0.068,0.0,0.151,0.034
15/02/2022,11:55:57,0.075,0.0,0.159,0.008
15/02/2022,11:57:25,0.074,0.0,0.16,0.001
15/02/2022,11:59:51,0.076,0.0,0.163,0.003
15/02/2022,12:00:40,0.076,0.0,0.164,0.001
15/02/2022,12:01:42,0.077,0.0,0.166,0.002
15/02/2022,12:02:41,0.077,0.0,0.167,0.001
15/02/2022,12:03:42,0.079,0.0,0.168,0.001
15/02/2022,12:04:41,0.083,0.0,0.17,0.002
15/02/2022,12:05:41,0.087,0.0,0.171,0.001
15/02/2022,12:06:41,0.090,0.0,0.173,0.002
15/02/2022,12:07:41,0.091,0.0,0.174,0.001
15/02/2022,12:08:41,0.088,0.0,0.176,0.002
15/02/2022,12:09:42,0.079,0.0,0.177,0.001
15/02/2022,12:10:41,0.092,0.0,0.178,0.001
15/02/2022,12:11:41,0.088,0.0,0.18,0.002
15/02/2022,12:12:42,0.088,0.0,0.181,0.001
15/02/2022,12:13:42,0.082,0.0,0.183,0.002
15/02/2022,12:14:42,0.081,0.0,0.184,0.001
15/02/2022,12:15:42,0.078,0.0,0.186,0.002
15/02/2022,12:16:42,0.085,0.0,0.187,0.001
15/02/2022,12:17:42,0.086,0.0,0.188,0.001
15/02/2022,12:18:41,0.087,0.0,0.19,0.002
15/02/2022,12:19:41,0.090,0.0,0.191,0.001
15/02/2022,12:20:50,0.093,0.0,0.193,0.002
15/02/2022,12:21:40,0.093,0.0,0.194,0.001
15/02/2022,12:22:42,0.091,0.0,0.196,0.002
15/02/2022,12:23:41,0.091,0.0,0.197,0.001
15/02/2022,12:24:41,0.091,0.0,0.199,0.002
15/02/2022,12:25:41,0.092,0.0,0.2,0.001
15/02/2022,12:26:42,0.089,0.0,0.202,0.002
15/02/2022,12:27:41,0.087,0.0,0.203,0.001
15/02/2022,12:28:41,0.080,0.0,0.205,0.002
15/02/2022,12:29:42,0.074,0.0,0.206,0.001
15/02/2022,12:30:42,0.073,0.0,0.207,0.001
15/02/2022,12:31:41,0.074,0.0,0.208,0.001
15/02/2022,12:32:42,0.076,0.0,0.21,0.002
15/02/2022,12:33:42,0.073,0.0,0.211,0.001
15/02/2022,12:34:41,0.063,0.0,0.212,0.001
15/02/2022,12:35:41,0.055,0.0,0.213,0.001
15/02/2022,12:36:42,0.045,0.0,0.214,0.001
15/02/2022,12:37:41,0.031,0.0,0.215,0.001
15/02/2022,12:38:42,0.026,0.0,0.215,0.0
15/02/2022,12:39:50,0.019,0.0,0.215,0.0
15/02/2022,12:40:41,0.015,0.0,0.216,0.001
15/02/2022,12:41:42,0.018,0.0,0.216,0.0
15/02/2022,12:42:42,0.021,0.0,0.216,0.0
15/02/2022,12:43:42,0.026,0.0,0.217,0.001
15/02/2022,12:44:41,0.028,0.0,0.217,0.0
15/02/2022,12:45:43,0.032,0.0,0.218,0.001
15/02/2022,12:46:42,0.033,0.0,0.218,0.0
15/02/2022,12:47:42,0.044,0.0,0.219,0.001
15/02/2022,12:48:42,0.059,0.0,0.22,0.001
15/02/2022,12:49:42,0.061,0.0,0.221,0.001
15/02/2022,12:50:41,0.060,0.0,0.222,0.001
15/02/2022,12:51:42,0.061,0.0,0.223,0.001
15/02/2022,12:52:50,0.070,0.0,0.224,0.001
15/02/2022,12:53:40,0.080,0.0,0.225,0.001
15/02/2022,12:54:44,0.073,0.0,0.226,0.001
15/02/2022,12:55:49,0.067,0.0,0.228,0.002
15/02/2022,12:56:42,0.072,0.0,0.229,0.001
15/02/2022,12:57:42,0.082,0.0,0.23,0.001
15/02/2022,12:58:42,0.074,0.0,0.231,0.001
15/02/2022,12:59:41,0.068,0.0,0.232,0.001
15/02/2022,13:00:41,0.069,0.0,0.234,0.002
15/02/2022,13:01:42,0.070,0.0,0.235,0.001
15/02/2022,13:02:41,0.078,0.0,0.236,0.001
15/02/2022,13:03:42,0.078,0.0,0.237,0.001
15/02/2022,13:04:42,0.076,0.0,0.239,0.002
15/02/2022,13:05:42,0.082,0.0,0.24,0.001
15/02/2022,13:06:41,0.087,0.0,0.241,0.001
15/02/2022,13:07:42,0.090,0.0,0.243,0.002
15/02/2022,13:08:42,0.093,0.0,0.244,0.001
15/02/2022,13:09:41,0.094,0.0,0.246,0.002
15/02/2022,13:10:42,0.099,0.0,0.248,0.002
15/02/2022,13:11:42,0.095,0.0,0.249,0.001
15/02/2022,13:12:42,0.090,0.0,0.251,0.002
15/02/2022,13:13:42,0.088,0.0,0.252,0.001
15/02/2022,13:14:43,0.088,0.0,0.254,0.002
15/02/2022,13:15:43,0.088,0.0,0.255,0.001
15/02/2022,13:16:42,0.086,0.0,0.257,0.002
15/02/2022,13:17:42,0.086,0.0,0.258,0.001
15/02/2022,13:18:42,0.085,0.0,0.259,0.001
15/02/2022,13:19:52,0.081,0.0,0.261,0.002
15/02/2022,13:21:43,0.081,0.0,0.263,0.002
15/02/2022,13:22:42,0.079,0.0,0.265,0.002
15/02/2022,13:23:42,0.079,0.0,0.266,0.001
15/02/2022,13:24:43,0.082,0.0,0.267,0.001
15/02/2022,13:25:41,0.082,0.0,0.269,0.002
15/02/2022,13:26:41,0.086,0.0,0.27,0.001
15/02/2022,13:27:42,0.089,0.0,0.272,0.002
15/02/2022,13:28:41,0.088,0.0,0.273,0.001
15/02/2022,13:29:43,0.088,0.0,0.275,0.002
15/02/2022,13:30:42,0.088,0.0,0.276,0.001
15/02/2022,13:31:42,0.088,0.0,0.278,0.002
15/02/2022,13:32:41,0.089,0.0,0.279,0.001
15/02/2022,13:33:42,0.086,0.0,0.281,0.002
15/02/2022,13:34:41,0.081,0.0,0.282,0.001
15/02/2022,13:35:50,0.078,0.0,0.283,0.001
15/02/2022,13:36:40,0.075,0.0,0.284,0.001
15/02/2022,13:37:43,0.073,0.0,0.286,0.002
15/02/2022,13:38:42,0.072,0.0,0.287,0.001
15/02/2022,13:39:42,0.074,0.0,0.288,0.001
15/02/2022,13:40:58,0.077,0.0,0.29,0.002
15/02/2022,13:42:51,0.080,0.0,0.292,0.002
15/02/2022,13:43:42,0.082,0.0,0.293,0.001
15/02/2022,13:44:43,0.083,0.0,0.295,0.002
15/02/2022,13:45:42,0.082,0.0,0.296,0.001
15/02/2022,13:46:41,0.080,0.0,0.297,0.001
15/02/2022,13:47:41,0.080,0.0,0.299,0.002
15/02/2022,13:48:50,0.074,0.0,0.3,0.001
15/02/2022,13:49:40,0.070,0.0,0.301,0.001
15/02/2022,13:50:42,0.067,0.0,0.302,0.001
15/02/2022,13:51:43,0.067,0.0,0.304,0.002
15/02/2022,13:52:42,0.071,0.0,0.305,0.001
15/02/2022,13:53:42,0.076,0.0,0.306,0.001
15/02/2022,13:54:42,0.082,0.0,0.307,0.001
15/02/2022,13:55:42,0.089,0.0,0.309,0.002
15/02/2022,13:56:42,0.095,0.0,0.31,0.001
15/02/2022,13:57:41,0.100,0.0,0.312,0.002
15/02/2022,13:58:42,0.104,0.0,0.314,0.002
15/02/2022,13:59:42,0.106,0.0,0.315,0.001
15/02/2022,14:00:42,0.107,0.0,0.317,0.002
15/02/2022,14:01:42,0.107,0.0,0.319,0.002
15/02/2022,14:02:41,0.112,0.0,0.321,0.002
15/02/2022,14:03:43,0.114,0.0,0.323,0.002
15/02/2022,14:04:50,0.107,0.0,0.325,0.002
15/02/2022,14:05:40,0.103,0.0,0.326,0.001
15/02/2022,14:06:42,0.100,0.0,0.328,0.002
15/02/2022,14:07:41,0.102,0.0,0.329,0.001
15/02/2022,14:08:42,0.104,0.0,0.331,0.002
15/02/2022,14:09:41,0.107,0.0,0.333,0.002
15/02/2022,14:10:42,0.113,0.0,0.335,0.002
15/02/2022,14:11:41,0.121,0.0,0.337,0.002
15/02/2022,14:12:51,0.136,0.0,0.339,0.002
15/02/2022,14:13:41,0.141,0.0,0.341,0.002
15/02/2022,14:14:42,0.147,0.0,0.344,0.003
15/02/2022,14:15:42,0.153,0.0,0.346,0.002
15/02/2022,14:16:41,0.154,0.0,0.349,0.003
15/02/2022,14:17:50,0.149,0.0,0.351,0.002
15/02/2022,14:18:42,0.147,0.0,0.354,0.003
15/02/2022,14:19:41,0.154,0.0,0.356,0.002
15/02/2022,14:20:42,0.166,0.0,0.359,0.003
15/02/2022,14:21:41,0.175,0.0,0.362,0.003
15/02/2022,14:22:42,0.178,0.0,0.365,0.003
15/02/2022,14:23:41,0.178,0.0,0.368,0.003
15/02/2022,14:24:42,0.175,0.0,0.37,0.002
15/02/2022,14:25:42,0.170,0.0,0.373,0.003
15/02/2022,14:26:42,0.163,0.0,0.376,0.003
15/02/2022,14:27:42,0.157,0.0,0.379,0.003
15/02/2022,14:28:42,0.151,0.0,0.381,0.002
15/02/2022,14:29:42,0.141,0.0,0.384,0.003
15/02/2022,14:30:50,0.131,0.0,0.386,0.002
15/02/2022,14:31:40,0.121,0.0,0.388,0.002
15/02/2022,14:32:50,0.109,0.0,0.39,0.002
15/02/2022,14:33:42,0.100,0.0,0.392,0.002
15/02/2022,14:34:43,0.094,0.0,0.393,0.001
15/02/2022,14:35:42,0.092,0.0,0.395,0.002
15/02/2022,14:36:42,0.091,0.0,0.397,0.002
15/02/2022,14:37:41,0.090,0.0,0.398,0.001
15/02/2022,14:38:42,0.085,0.0,0.4,0.002
15/02/2022,14:39:42,0.081,0.0,0.401,0.001
15/02/2022,14:40:42,0.077,0.0,0.402,0.001
15/02/2022,14:41:42,0.076,0.0,0.404,0.002
15/02/2022,14:42:41,0.078,0.0,0.405,0.001
15/02/2022,14:43:42,0.087,0.0,0.406,0.001
15/02/2022,14:44:42,0.095,0.0,0.408,0.002
15/02/2022,14:45:41,0.095,0.0,0.409,0.001
15/02/2022,14:46:42,0.093,0.0,0.411,0.002
15/02/2022,14:47:42,0.087,0.0,0.412,0.001
15/02/2022,14:48:42,0.083,0.0,0.414,0.002
15/02/2022,14:49:42,0.081,0.0,0.415,0.001
15/02/2022,14:50:42,0.083,0.0,0.416,0.001
15/02/2022,14:51:42,0.085,0.0,0.418,0.002
15/02/2022,14:52:42,0.087,0.0,0.419,0.001
15/02/2022,14:53:41,0.090,0.0,0.421,0.002
15/02/2022,14:54:42,0.093,0.0,0.422,0.001
15/02/2022,14:55:41,0.097,0.0,0.424,0.002
15/02/2022,14:56:42,0.102,0.0,0.426,0.002
15/02/2022,14:57:42,0.110,0.0,0.427,0.001
15/02/2022,14:58:41,0.120,0.0,0.429,0.002
15/02/2022,14:59:42,0.125,0.0,0.431,0.002
15/02/2022,15:00:42,0.127,0.0,0.433,0.002
15/02/2022,15:01:42,0.127,0.0,0.436,0.003
15/02/2022,15:02:44,0.124,0.0,0.438,0.002
15/02/2022,15:03:42,0.122,0.0,0.44,0.002
15/02/2022,15:04:50,0.119,0.0,0.442,0.002
15/02/2022,15:05:40,0.115,0.0,0.444,0.002
15/02/2022,15:06:42,0.113,0.0,0.446,0.002
15/02/2022,15:07:42,0.111,0.0,0.447,0.001
15/02/2022,15:08:42,0.107,0.0,0.449,0.002
15/02/2022,15:09:42,0.105,0.0,0.451,0.002
15/02/2022,15:10:41,0.103,0.0,0.453,0.002
15/02/2022,15:11:42,0.100,0.0,0.454,0.001
15/02/2022,15:12:42,0.098,0.0,0.456,0.002
15/02/2022,15:13:43,0.095,0.0,0.458,0.002
15/02/2022,15:14:44,0.092,0.0,0.459,0.001
15/02/2022,15:15:42,0.091,0.0,0.461,0.002
15/02/2022,15:16:42,0.089,0.0,0.462,0.001
15/02/2022,15:17:42,0.087,0.0,0.464,0.002
15/02/2022,15:18:43,0.085,0.0,0.465,0.001
15/02/2022,15:19:41,0.083,0.0,0.467,0.002
15/02/2022,15:20:50,0.082,0.0,0.468,0.001
15/02/2022,15:21:42,0.079,0.0,0.469,0.001
15/02/2022,15:22:42,0.078,0.0,0.471,0.002
15/02/2022,15:23:43,0.076,0.0,0.472,0.001
15/02/2022,15:24:41,0.075,0.0,0.473,0.001
15/02/2022,15:25:42,0.072,0.0,0.474,0.001
15/02/2022,15:26:42,0.071,0.0,0.476,0.002
15/02/2022,15:27:42,0.069,0.0,0.477,0.001
15/02/2022,15:28:42,0.068,0.0,0.478,0.001
15/02/2022,15:29:41,0.065,0.0,0.479,0.001
15/02/2022,15:30:42,0.064,0.0,0.48,0.001
15/02/2022,15:31:42,0.063,0.0,0.481,0.001
15/02/2022,15:32:42,0.062,0.0,0.482,0.001
15/02/2022,15:33:50,0.059,0.0,0.483,0.001
15/02/2022,15:34:40,0.059,0.0,0.484,0.001
15/02/2022,15:35:42,0.057,0.0,0.485,0.001
15/02/2022,15:36:41,0.056,0.0,0.486,0.001
15/02/2022,15:37:42,0.054,0.0,0.487,0.001
15/02/2022,15:38:42,0.053,0.0,0.488,0.001
15/02/2022,15:39:42,0.053,0.0,0.489,0.001
15/02/2022,15:40:41,0.051,0.0,0.49,0.001
15/02/2022,15:41:42,0.051,0.0,0.49,0.0
15/02/2022,15:42:41,0.049,0.0,0.491,0.001
15/02/2022,15:43:42,0.049,0.0,0.492,0.001
15/02/2022,15:44:43,0.049,0.0,0.493,0.001
15/02/2022,15:45:42,0.047,0.0,0.494,0.001
15/02/2022,15:46:42,0.046,0.0,0.494,0.0
15/02/2022,15:47:42,0.044,0.0,0.495,0.001
15/02/2022,15:48:41,0.043,0.0,0.496,0.001
15/02/2022,15:49:42,0.042,0.0,0.497,0.001
15/02/2022,15:50:43,0.041,0.0,0.497,0.0
15/02/2022,15:51:42,0.040,0.0,0.498,0.001
15/02/2022,15:52:42,0.039,0.0,0.499,0.001
15/02/2022,15:53:42,0.037,0.0,0.499,0.0
15/02/2022,15:54:50,0.036,0.0,0.5,0.001
15/02/2022,15:55:42,0.035,0.0,0.5,0.0
15/02/2022,15:56:42,0.034,0.0,0.501,0.001
15/02/2022,15:57:42,0.033,0.0,0.502,0.001
15/02/2022,15:58:42,0.030,0.0,0.502,0.0
15/02/2022,15:59:42,0.031,0.0,0.503,0.001
15/02/2022,16:00:42,0.030,0.0,0.503,0.0
15/02/2022,16:01:43,0.029,0.0,0.504,0.001
15/02/2022,16:02:42,0.028,0.0,0.504,0.0
15/02/2022,16:03:42,0.027,0.0,0.505,0.001
15/02/2022,16:04:43,0.026,0.0,0.505,0.0
15/02/2022,16:05:42,0.024,0.0,0.505,0.0
15/02/2022,16:06:42,0.025,0.0,0.506,0.001
15/02/2022,16:07:51,0.023,0.0,0.506,0.0
15/02/2022,16:08:41,0.023,0.0,0.507,0.001
15/02/2022,16:09:41,0.023,0.0,0.507,0.0
15/02/2022,16:10:42,0.021,0.0,0.507,0.0
15/02/2022,16:11:41,0.021,0.0,0.508,0.001
15/02/2022,16:12:42,0.020,0.0,0.508,0.0
15/02/2022,16:13:50,0.019,0.0,0.508,0.0
15/02/2022,16:14:40,0.019,0.0,0.509,0.001
15/02/2022,16:15:42,0.018,0.0,0.509,0.0
15/02/2022,16:16:42,0.017,0.0,0.509,0.0
15/02/2022,16:17:40,0.018,0.0,0.51,0.001
15/02/2022,16:18:42,0.017,0.0,0.51,0.0
15/02/2022,16:19:42,0.018,0.0,0.51,0.0
15/02/2022,16:20:43,0.016,0.0,0.51,0.0
15/02/2022,16:21:42,0.017,0.0,0.511,0.001
15/02/2022,16:22:42,0.016,0.0,0.511,0.0
15/02/2022,16:23:42,0.015,0.0,0.511,0.0
15/02/2022,16:24:42,0.015,0.0,0.511,0.0
15/02/2022,16:25:42,0.015,0.0,0.512,0.001
15/02/2022,16:26:42,0.014,0.0,0.512,0.0
15/02/2022,16:27:42,0.014,0.0,0.512,0.0
15/02/2022,16:28:42,0.015,0.0,0.512,0.0
15/02/2022,16:29:43,0.014,0.0,0.513,0.001
15/02/2022,16:30:42,0.013,0.0,0.513,0.0
15/02/2022,16:31:42,0.012,0.0,0.513,0.0
15/02/2022,16:32:42,0.012,0.0,0.513,0.0
15/02/2022,16:33:41,0.012,0.0,0.513,0.0
15/02/2022,16:34:42,0.011,0.0,0.514,0.001
15/02/2022,16:35:42,0.009,0.0,0.514,0.0
15/02/2022,16:36:42,0.011,0.0,0.514,0.0
15/02/2022,16:37:43,0.010,0.0,0.514,0.0
15/02/2022,16:38:42,0.010,0.0,0.514,0.0
15/02/2022,16:39:42,0.008,0.0,0.514,0.0
15/02/2022,16:40:42,0.008,0.0,0.515,0.001
15/02/2022,16:41:50,0.008,0.0,0.515,0.0
15/02/2022,16:42:42,0.007,0.0,0.515,0.0
15/02/2022,16:43:42,0.006,0.0,0.515,0.0
15/02/2022,16:44:41,0.007,0.0,0.515,0.0
15/02/2022,16:45:42,0.005,0.0,0.515,0.0
15/02/2022,16:46:42,0.006,0.0,0.515,0.0
15/02/2022,16:47:51,0.005,0.0,0.515,0.0
15/02/2022,16:48:41,0.004,0.0,0.515,0.0
15/02/2022,16:49:42,0.004,0.0,0.515,0.0
15/02/2022,16:50:51,0.004,0.0,0.515,0.0
15/02/2022,16:51:41,0.004,0.0,0.515,0.0
15/02/2022,16:52:42,0.003,0.0,0.515,0.0
15/02/2022,16:53:42,0.004,0.0,0.515,0.0
15/02/2022,16:54:42,0.003,0.0,0.515,0.0
15/02/2022,16:55:41,0.003,0.0,0.515,0.0
15/02/2022,16:56:42,0.003,0.0,0.515,0.0
15/02/2022,16:57:43,0.002,0.0,0.515,0.0
15/02/2022,16:58:42,0.002,0.0,0.515,0.0
15/02/2022,16:59:42,0.003,0.0,0.515,0.0
15/02/2022,17:00:42,0.001,0.0,0.515,0.0
15/02/2022,17:01:42,0.001,0.0,0.515,0.0
15/02/2022,17:02:42,0.001,0.0,0.515,0.0
15/02/2022,17:03:51,0.001,0.0,0.515,0.0
15/02/2022,17:04:41,0.001,0.0,0.515,0.0
15/02/2022,17:05:42,0.002,0.0,0.515,0.0
15/02/2022,17:06:42,0.001,0.0,0.515,0.0
15/02/2022,17:07:42,0.001,0.0,0.515,0.0
15/02/2022,17:08:46,0.001,0.0,0.515,0.0
15/02/2022,17:09:51,0.001,0.0,0.515,0.0
15/02/2022,17:10:41,0.000,0.0,0.515,0.0
15/02/2022,17:11:43,0.000,0.0,0.515,0.0
15/02/2022,17:12:42,0.000,0.0,0.515,0.0
15/02/2022,17:13:42,0.001,0.0,0.515,0.0
15/02/2022,17:14:43,-0.001,0.0,0.515,0.0
15/02/2022,17:15:41,-0.000,0.0,0.515,0.0
15/02/2022,17:16:43,-0.000,0.0,0.515,0.0
15/02/2022,17:17:43,0.000,0.0,0.515,0.0
15/02/2022,17:18:42,-0.000,0.0,0.515,0.0
15/02/2022,17:19:42,-0.000,0.0,0.515,0.0
15/02/2022,17:20:42,-0.001,0.0,0.515,0.0
15/02/2022,17:21:42,-0.001,0.0,0.515,0.0
15/02/2022,17:22:42,-0.002,0.0,0.515,0.0
15/02/2022,17:23:42,-0.001,0.0,0.515,0.0
15/02/2022,17:24:51,-0.001,0.0,0.515,0.0
15/02/2022,17:25:41,-0.001,0.0,0.515,0.0
15/02/2022,17:26:42,-0.001,0.0,0.515,0.0
15/02/2022,17:27:51,-0.001,0.0,0.515,0.0
15/02/2022,17:28:41,-0.001,0.0,0.515,0.0
15/02/2022,17:29:43,-0.002,0.0,0.515,0.0
15/02/2022,17:30:43,-0.002,0.0,0.515,0.0
15/02/2022,17:31:42,-0.002,0.0,0.515,0.0
15/02/2022,17:32:42,-0.002,0.0,0.515,0.0
15/02/2022,17:33:42,-0.002,0.0,0.515,0.0
15/02/2022,17:34:42,-0.002,0.0,0.515,0.0
15/02/2022,17:35:42,-0.002,0.0,0.515,0.0
15/02/2022,17:36:42,-0.002,0.0,0.515,0.0
15/02/2022,17:37:50,-0.002,0.0,0.515,0.0
15/02/2022,17:38:40,-0.002,0.0,0.515,0.0
15/02/2022,17:39:42,-0.002,0.0,0.515,0.0
15/02/2022,17:40:50,-0.002,0.0,0.515,0.0
15/02/2022,17:41:42,-0.002,0.0,0.515,0.0
15/02/2022,17:42:43,-0.002,0.0,0.515,0.0
15/02/2022,17:43:42,-0.002,0.0,0.515,0.0
15/02/2022,17:44:42,-0.002,0.0,0.515,0.0
15/02/2022,17:45:43,-0.002,0.0,0.515,0.0
15/02/2022,17:46:50,-0.002,0.0,0.515,0.0
15/02/2022,17:47:42,-0.002,0.0,0.515,0.0
15/02/2022,17:48:42,-0.002,0.0,0.515,0.0
15/02/2022,17:49:43,-0.002,0.0,0.515,0.0
15/02/2022,17:50:42,-0.002,0.0,0.515,0.0
15/02/2022,17:51:42,-0.003,0.0,0.515,0.0
15/02/2022,17:52:42,-0.002,0.0,0.515,0.0
15/02/2022,17:53:42,-0.002,0.0,0.515,0.0
15/02/2022,17:54:42,-0.002,0.0,0.515,0.0
15/02/2022,17:55:43,-0.002,0.0,0.515,0.0
15/02/2022,17:56:42,-0.002,0.0,0.515,0.0
15/02/2022,17:57:42,-0.002,0.0,0.515,0.0
15/02/2022,17:58:42,-0.002,0.0,0.515,0.0
15/02/2022,17:59:42,-0.002,0.0,0.515,0.0
15/02/2022,18:00:42,-0.002,0.0,0.515,0.0
15/02/2022,18:01:43,-0.003,0.0,0.515,0.0
15/02/2022,18:02:43,-0.002,0.0,0.515,0.0
15/02/2022,18:03:42,-0.002,0.0,0.515,0.0
15/02/2022,18:04:43,-0.002,0.0,0.515,0.0
15/02/2022,18:05:42,-0.003,0.0,0.515,0.0
15/02/2022,18:06:42,-0.002,0.0,0.515,0.0
15/02/2022,18:07:42,-0.003,0.0,0.515,0.0
15/02/2022,18:08:42,-0.003,0.0,0.515,0.0
15/02/2022,18:09:43,-0.002,0.0,0.515,0.0
15/02/2022,18:10:42,-0.002,0.0,0.515,0.0
15/02/2022,18:11:41,-0.002,0.0,0.515,0.0
15/02/2022,18:12:42,-0.002,0.0,0.515,0.0
15/02/2022,18:13:42,-0.002,0.0,0.515,0.0
15/02/2022,18:14:51,-0.003,0.0,0.515,0.0
15/02/2022,18:15:41,-0.003,0.0,0.515,0.0
15/02/2022,18:16:43,-0.002,0.0,0.515,0.0
15/02/2022,18:17:42,-0.002,0.0,0.515,0.0
15/02/2022,18:18:44,-0.002,0.0,0.515,0.0
15/02/2022,18:19:43,-0.002,0.0,0.515,0.0
15/02/2022,18:20:50,-0.002,0.0,0.515,0.0
15/02/2022,18:21:42,-0.002,0.0,0.515,0.0
15/02/2022,18:22:43,-0.002,0.0,0.515,0.0
15/02/2022,18:23:42,-0.002,0.0,0.515,0.0
15/02/2022,18:24:42,-0.002,0.0,0.515,0.0
15/02/2022,18:25:42,-0.002,0.0,0.515,0.0
15/02/2022,18:26:42,-0.003,0.0,0.515,0.0
15/02/2022,18:27:42,-0.003,0.0,0.515,0.0
15/02/2022,18:28:42,-0.002,0.0,0.515,0.0
15/02/2022,18:29:42,-0.003,0.0,0.515,0.0
15/02/2022,18:30:42,-0.002,0.0,0.515,0.0
15/02/2022,18:31:43,-0.002,0.0,0.515,0.0
15/02/2022,18:32:43,-0.002,0.0,0.515,0.0
15/02/2022,18:33:50,-0.002,0.0,0.515,0.0
15/02/2022,18:34:40,-0.002,0.0,0.515,0.0
15/02/2022,18:35:50,-0.002,0.0,0.515,0.0
15/02/2022,18:36:42,-0.002,0.0,0.515,0.0
15/02/2022,18:37:43,-0.003,0.0,0.515,0.0
15/02/2022,18:38:42,-0.003,0.0,0.515,0.0
15/02/2022,18:39:42,-0.002,0.0,0.515,0.0
15/02/2022,18:40:42,-0.002,0.0,0.515,0.0
15/02/2022,18:41:42,-0.002,0.0,0.515,0.0
15/02/2022,18:42:43,-0.002,0.0,0.515,0.0
15/02/2022,18:43:42,-0.002,0.0,0.515,0.0
15/02/2022,18:44:42,-0.003,0.0,0.515,0.0
15/02/2022,18:45:42,-0.002,0.0,0.515,0.0
15/02/2022,18:46:43,-0.003,0.0,0.515,0.0
15/02/2022,18:47:42,-0.002,0.0,0.515,0.0
15/02/2022,18:48:51,-0.003,0.0,0.515,0.0
15/02/2022,18:49:41,-0.003,0.0,0.515,0.0
15/02/2022,18:50:42,-0.003,0.0,0.515,0.0
15/02/2022,18:51:42,-0.003,0.0,0.515,0.0
15/02/2022,18:52:42,-0.003,0.0,0.515,0.0
15/02/2022,18:53:42,-0.002,0.0,0.515,0.0
15/02/2022,18:54:51,-0.002,0.0,0.515,0.0
15/02/2022,18:55:43,-0.003,0.0,0.515,0.0
15/02/2022,18:56:42,-0.002,0.0,0.515,0.0
15/02/2022,18:57:42,-0.002,0.0,0.515,0.0
15/02/2022,18:58:42,-0.003,0.0,0.515,0.0
15/02/2022,18:59:42,-0.002,0.0,0.515,0.0
15/02/2022,19:00:43,-0.002,0.0,0.515,0.0
15/02/2022,19:01:42,-0.002,0.0,0.515,0.0
15/02/2022,19:02:42,-0.002,0.0,0.515,0.0
15/02/2022,19:03:42,-0.003,0.0,0.515,0.0
15/02/2022,19:04:42,-0.002,0.0,0.515,0.0
15/02/2022,19:05:42,-0.003,0.0,0.515,0.0
15/02/2022,19:06:43,-0.003,0.0,0.515,0.0
15/02/2022,19:07:42,-0.002,0.0,0.515,0.0
15/02/2022,19:08:43,-0.003,0.0,0.515,0.0
15/02/2022,19:09:43,-0.003,0.0,0.515,0.0
15/02/2022,19:10:51,-0.002,0.0,0.515,0.0
15/02/2022,19:11:43,-0.002,0.0,0.515,0.0
15/02/2022,19:12:42,-0.004,0.0,0.515,0.0
15/02/2022,19:13:42,-0.003,0.0,0.515,0.0
15/02/2022,19:14:52,-0.002,0.0,0.515,0.0
15/02/2022,19:15:42,-0.003,0.0,0.515,0.0
15/02/2022,19:16:43,-0.003,0.0,0.515,0.0
15/02/2022,19:17:43,-0.002,0.0,0.515,0.0
15/02/2022,19:18:42,-0.002,0.0,0.515,0.0
15/02/2022,19:19:50,-0.002,0.0,0.515,0.0
15/02/2022,19:20:43,-0.002,0.0,0.515,0.0
15/02/2022,19:21:43,-0.002,0.0,0.515,0.0
15/02/2022,19:22:42,-0.003,0.0,0.515,0.0
15/02/2022,19:23:43,-0.003,0.0,0.515,0.0
15/02/2022,19:25:43,-0.002,0.0,0.515,0.0
15/02/2022,19:26:43,-0.002,0.0,0.515,0.0
15/02/2022,19:27:42,-0.003,0.0,0.515,0.0
15/02/2022,19:28:42,-0.002,0.0,0.515,0.0
